Location: Azul
(36.7830°S, 59.8500°W)
Time: 03:21:33
(UTC-03:00)

ISS - Pass Details

Date: 19 October 2019
Orbit: 411 x 421 km, 51.6° (Epoch: 14 October)

Event Time Altitude Azimuth Distance (km) Brightness Sun altitude
Rises 22:02:37 0° 262° (W) 2,370 0.8 -29.6°
Reaches altitude 10° 22:05:36 10° 233° (SW) 1,514 0.0 -30.1°
Enters shadow 22:07:17 13° 203° (SSW) 1,333 -0.5 -30.3°
